Weather History for Oskaloosa, IA

Change the Weather History Date:

Friday, November 2, 2012

  Actual Average (KOTM) Record (KOTM)
Temperature  
Mean Temperature 40 °F 46 °F  
Max Temperature 49 °F 56 °F 81 °F (1938)
Min Temperature 31 °F 36 °F 12 °F (1991)
Degree Days  
Heating Degree Days 25 19  
Month to date heating degree days 38  
Since 1 July heating degree days 562  
Cooling Degree Days 0 0  
Month to date cooling degree days 0  
Year to date cooling degree days 938  
Moisture  
Dew Point 29 °F    
Average Humidity 66    
Maximum Humidity 86    
Minimum Humidity 43    
Precipitation  
Precipitation 0.00 in 0.10 in 2.58 in (1961)
Month to date precipitation 0.19  
Year to date precipitation 33.51  
Sea Level Pressure  
Sea Level Pressure 30.05 in    
Wind  
Wind Speed 8 mph (ENE)    
Max Wind Speed 16 mph    
Max Gust Speed 18 mph    
Visibility 10 miles    
Events      
T = Trace of Precipitation, MM = Missing Value Source: NWS Daily Summary

Daily Weather History Graph

Daily Weather History Graph

Search for Another Location

Airport:

Trip Planner

Search our weather history database for the weather conditions in past years. The results will help you decide how hot, cold, wet, or windy it might be!

Date:

Astronomy

Nov. 02, 2012 Rise Set
Actual Time 7:42 AM CDT 6:03 PM CDT
Civil Twilight 7:14 AM CDT 6:32 PM CDT
Nautical Twilight 6:41 AM CDT 7:04 PM CDT
Astronomical Twilight 6:09 AM CDT 7:37 PM CDT
Moon 8:50 PM CDT (11/2) 11:05 AM CDT (11/2)
Length of Visible Light 11h 18m
Length of Day
10h 20m
Waning Gibbous, 87% of the Moon is Illuminated
Nov 2
Waning Gibbous
Nov 6
Last Quarter
Nov 13
New
Nov 20
First Quarter
Nov 28
Full

Hourly Weather History & Observations

Time (CDT) Temp. Windchill Dew Point Humidity Pressure Visibility Wind Dir Wind Speed Gust Speed Precip Events Conditions
12:15 AM 36.1 °F 30.6 °F 30.7 °F 81% 30.00 in 10.0 mi North 6.9 mph - N/A   Clear
12:35 AM 36.1 °F 31.4 °F 30.2 °F 79% 30.00 in 10.0 mi NNE 5.8 mph - N/A   Clear
12:55 AM 35.6 °F 30.7 °F 30.0 °F 80% 30.01 in 10.0 mi NNE 5.8 mph - N/A   Clear
1:15 AM 34.7 °F 28.8 °F 29.5 °F 81% 30.01 in 10.0 mi North 6.9 mph - N/A   Clear
1:35 AM 35.2 °F 28.8 °F 29.7 °F 80% 30.01 in 10.0 mi NNE 8.1 mph - N/A   Clear
1:55 AM 35.1 °F 28.6 °F 29.3 °F 80% 30.01 in 10.0 mi NNE 8.1 mph - N/A   Clear
2:15 AM 34.5 °F 28.6 °F 28.8 °F 79% 30.02 in 10.0 mi North 6.9 mph - N/A   Clear
2:35 AM 33.3 °F 27.1 °F 28.4 °F 82% 30.02 in 10.0 mi NNE 6.9 mph - N/A   Clear
2:55 AM 33.4 °F 28.1 °F 28.4 °F 82% 30.02 in 10.0 mi NNE 5.8 mph - N/A   Clear
3:15 AM 32.5 °F 26.2 °F 27.9 °F 83% 30.03 in 10.0 mi NNE 6.9 mph - N/A   Clear
3:35 AM 32.4 °F 26.9 °F 28.2 °F 85% 30.03 in 10.0 mi North 5.8 mph - N/A   Clear
3:55 AM 32.5 °F 27.1 °F 28.0 °F 83% 30.03 in 10.0 mi North 5.8 mph - N/A   Clear
4:15 AM 32.0 °F 26.4 °F 27.7 °F 84% 30.04 in 10.0 mi North 5.8 mph - N/A   Clear
4:35 AM 31.8 °F 25.4 °F 27.3 °F 83% 30.04 in 10.0 mi NNE 6.9 mph - N/A   Clear
4:55 AM 32.0 °F 26.4 °F 27.5 °F 83% 30.04 in 10.0 mi NNE 5.8 mph - N/A   Clear
5:15 AM 32.0 °F 26.4 °F 27.5 °F 83% 30.04 in 10.0 mi NE 5.8 mph - N/A   Clear
5:35 AM 32.0 °F 25.6 °F 27.5 °F 83% 30.04 in 10.0 mi NE 6.9 mph - N/A   Clear
5:55 AM 32.0 °F 24.8 °F 27.9 °F 85% 30.04 in 10.0 mi ENE 8.1 mph - N/A   Clear
6:15 AM 32.0 °F 25.6 °F 27.9 °F 85% 30.04 in 10.0 mi NE 6.9 mph - N/A   Clear
6:35 AM 32.0 °F 25.6 °F 28.0 °F 85% 30.04 in 10.0 mi ENE 6.9 mph - N/A   Clear
6:55 AM 32.2 °F 26.7 °F 28.0 °F 85% 30.05 in 10.0 mi ENE 5.8 mph - N/A   Clear
7:15 AM 32.0 °F 26.4 °F 28.0 °F 85% 30.05 in 10.0 mi ENE 5.8 mph - N/A   Scattered Clouds
7:35 AM 32.0 °F 25.6 °F 28.0 °F 85% 30.06 in 10.0 mi ENE 6.9 mph - N/A   Overcast
7:55 AM 32.0 °F 24.2 °F 28.2 °F 86% 30.06 in 10.0 mi ENE 9.2 mph - N/A   Scattered Clouds
8:15 AM 32.4 °F 26.9 °F 28.4 °F 85% 30.06 in 7.0 mi ENE 5.8 mph - N/A   Scattered Clouds
8:35 AM 33.8 °F - 29.3 °F 84% 30.08 in 10.0 mi Calm Calm - N/A   Mostly Cloudy
8:55 AM 35.8 °F 30.9 °F 30.0 °F 80% 30.09 in 10.0 mi East 5.8 mph - N/A   Overcast
9:15 AM 36.5 °F 29.7 °F 30.0 °F 77% 30.10 in 10.0 mi East 9.2 mph - N/A   Mostly Cloudy
9:35 AM 37.9 °F 31.5 °F 30.7 °F 75% 30.10 in 10.0 mi East 9.2 mph - N/A   Clear
9:55 AM 39.7 °F 33.2 °F 31.1 °F 71% 30.10 in 10.0 mi East 10.4 mph - N/A   Clear
10:15 AM 41.7 °F 33.7 °F 31.1 °F 66% 30.10 in 10.0 mi ESE 16.1 mph - N/A   Clear
10:35 AM 42.6 °F 35.9 °F 30.9 °F 63% 30.10 in 10.0 mi East 12.7 mph - N/A   Clear
10:55 AM 44.1 °F 37.7 °F 30.6 °F 59% 30.10 in 10.0 mi ESE 12.7 mph - N/A   Clear
11:15 AM 44.8 °F 38.3 °F 29.7 °F 55% 30.09 in 10.0 mi ESE 13.8 mph 17.3 mph N/A   Clear
11:35 AM 45.5 °F 39.6 °F 29.7 °F 54% 30.10 in 10.0 mi SE 12.7 mph - N/A   Clear
11:55 AM 46.4 °F 41.1 °F 29.7 °F 52% 30.10 in 10.0 mi ESE 11.5 mph - N/A   Clear
12:15 PM 46.4 °F 40.7 °F 28.8 °F 50% 30.09 in 10.0 mi ESE 12.7 mph 17.3 mph N/A   Clear
12:35 PM 46.8 °F - 28.4 °F 49% 30.08 in 10.0 mi ESE 12.7 mph - N/A   Clear
12:55 PM 47.3 °F - 28.8 °F 49% 30.07 in 10.0 mi ESE 12.7 mph 17.3 mph N/A   Clear
1:15 PM 47.7 °F - 28.6 °F 48% 30.07 in 10.0 mi ESE 12.7 mph 18.4 mph N/A   Clear
1:35 PM 47.3 °F - 28.0 °F 47% 30.05 in 10.0 mi ESE 13.8 mph 17.3 mph N/A   Clear
1:55 PM 48.2 °F - 28.4 °F 46% 30.05 in 10.0 mi East 13.8 mph - N/A   Clear
2:15 PM 49.1 °F - 28.4 °F 45% 30.05 in 10.0 mi ESE 12.7 mph - N/A   Clear
2:35 PM 49.1 °F - 28.2 °F 44% 30.05 in 10.0 mi ESE 10.4 mph 17.3 mph N/A   Clear
2:55 PM 49.1 °F - 28.2 °F 44% 30.04 in 10.0 mi ESE 13.8 mph 17.3 mph N/A   Clear
3:15 PM 48.9 °F - 28.2 °F 45% 30.03 in 10.0 mi ESE 9.2 mph - N/A   Clear
3:35 PM 48.9 °F - 27.9 °F 44% 30.03 in 10.0 mi ESE 12.7 mph - N/A   Clear
3:55 PM 48.6 °F - 27.3 °F 44% 30.05 in 10.0 mi East 13.8 mph - N/A   Clear
4:15 PM 48.6 °F - 27.1 °F 43% 30.05 in 10.0 mi East 11.5 mph - N/A   Clear
4:35 PM 48.4 °F - 27.5 °F 44% 30.05 in 10.0 mi East 10.4 mph - N/A   Clear
4:55 PM 48.0 °F - 27.5 °F 45% 30.03 in 10.0 mi East 12.7 mph - N/A   Clear
5:15 PM 47.5 °F - 28.0 °F 47% 30.03 in 10.0 mi East 10.4 mph - N/A   Clear
5:35 PM 47.3 °F - 28.2 °F 48% 30.04 in 10.0 mi East 8.1 mph - N/A   Clear
5:55 PM 46.6 °F - 28.9 °F 50% 30.03 in 10.0 mi East 11.5 mph - N/A   Clear
6:15 PM 46.2 °F 43.3 °F 29.5 °F 52% 30.04 in 10.0 mi East 5.8 mph - N/A   Clear
6:35 PM 45.5 °F 41.3 °F 29.7 °F 54% 30.03 in 10.0 mi East 8.1 mph - N/A   Clear
6:55 PM 44.4 °F 41.2 °F 29.3 °F 55% 30.04 in 10.0 mi East 5.8 mph - N/A   Clear
7:15 PM 43.0 °F 38.2 °F 29.7 °F 59% 30.05 in 10.0 mi East 8.1 mph - N/A   Clear
7:35 PM 42.1 °F 37.1 °F 29.3 °F 61% 30.04 in 10.0 mi ENE 8.1 mph - N/A   Clear
7:55 PM 41.0 °F 36.4 °F 29.3 °F 63% 30.04 in 10.0 mi East 6.9 mph - N/A   Clear
8:15 PM 41.4 °F 36.8 °F 29.3 °F 62% 30.05 in 10.0 mi East 6.9 mph - N/A   Clear
8:35 PM 41.9 °F 37.5 °F 30.0 °F 63% 30.05 in 10.0 mi East 6.9 mph - N/A   Clear
8:55 PM 41.0 °F 36.4 °F 30.2 °F 65% 30.05 in 10.0 mi East 6.9 mph - N/A   Clear
9:15 PM 41.0 °F 35.8 °F 30.6 °F 66% 30.06 in 10.0 mi ENE 8.1 mph - N/A   Clear
9:35 PM 41.0 °F 35.2 °F 30.9 °F 67% 30.07 in 10.0 mi NE 9.2 mph - N/A   Clear
9:55 PM 40.5 °F 34.6 °F 30.7 °F 68% 30.08 in 10.0 mi ENE 9.2 mph - N/A   Clear
10:15 PM 39.4 °F 33.2 °F 30.6 °F 71% 30.08 in 10.0 mi ENE 9.2 mph - N/A   Clear
10:35 PM 38.8 °F 32.6 °F 30.6 °F 72% 30.08 in 10.0 mi ENE 9.2 mph - N/A   Clear
10:55 PM 39.9 °F 32.9 °F 31.1 °F 71% 30.08 in 10.0 mi ENE 11.5 mph - N/A   Mostly Cloudy
11:15 PM 41.4 °F 35.2 °F 30.9 °F 66% 30.08 in 10.0 mi East 10.4 mph - N/A   Overcast
11:35 PM 42.1 °F 36.1 °F 30.2 °F 63% 30.08 in 10.0 mi East 10.4 mph - N/A   Overcast
11:55 PM 42.4 °F 36.1 °F 29.5 °F 60% 30.07 in 10.0 mi East 11.5 mph - N/A   Overcast